This is the latest recevied weather packets stored in our database for station/object AB4KN. If no packets are shown the sender has not sent any weather packets the latest 1 day(s).
| Time | Temp. | Humidity | Pressure | Rain* | Wind** | Luminosity | Snow |
|---|---|---|---|---|---|---|---|
| 1778049684 | 18.33° C | 66% | 1019.1 hPa | 0 mm | - | 0 W/m² | - |
| 1778048778 | 18.33° C | 64% | 1019 hPa | 0 mm | - | 0 W/m² | - |
| 1778048475 | 17.78° C | 63% | 1019.3 hPa | 0 mm | - | 0 W/m² | - |
| 1778047869 | 17.78° C | 62% | 1019.4 hPa | 0 mm | - | 0 W/m² | - |
| 1778046657 | 18.33° C | 61% | 1019.1 hPa | 0 mm | - | 0 W/m² | - |
| 1778046354 | 18.33° C | 60% | 1019.1 hPa | 0 mm | - | 0 W/m² | - |
| 1778045748 | 18.33° C | 60% | 1019 hPa | 0 mm | - | 0 W/m² | - |
| 1778045144 | 18.33° C | 59% | 1019 hPa | 0 mm | - | 0 W/m² | - |
| 1778044842 | 18.33° C | 59% | 1018.7 hPa | 0 mm | - | 0 W/m² | - |
| 1778044235 | 18.89° C | 58% | 1018.9 hPa | 0 mm | - | 0 W/m² | - |
| 1778043933 | 18.89° C | 58% | 1018.6 hPa | 0 mm | - | 0 W/m² | - |
| 1778042418 | 19.44° C | 55% | 1019.4 hPa | 0 mm | - | 0 W/m² | - |
| 1778042115 | 19.44° C | 55% | 1019.4 hPa | 0 mm | - | 0 W/m² | - |
| 1778041512 | 18.89° C | 55% | 1019 hPa | 0 mm | - | 0 W/m² | - |
| 1778041210 | 18.89° C | 55% | 1019.1 hPa | 0 mm | - | 0 W/m² | - |
| 1778039998 | 19.44° C | 55% | 1018.9 hPa | 0 mm | - | 0 W/m² | - |
| 1778039695 | 19.44° C | 54% | 1018.8 hPa | 0 mm | - | 0 W/m² | - |
| 1778039089 | 20° C | 53% | 1019.1 hPa | 0 mm | - | 0 W/m² | - |
| 1778038786 | 20° C | 53% | 1019.3 hPa | 0 mm | - | 0 W/m² | - |
| 1778038484 | 20° C | 53% | 1019.3 hPa | 0 mm | - | 0 W/m² | - |
| 1778038180 | 20° C | 52% | 1019.4 hPa | 0 mm | - | 0 W/m² | - |
| 1778037877 | 20° C | 52% | 1019.3 hPa | 0 mm | - | 0 W/m² | - |
| 1778037574 | 20.56° C | 51% | 1019.4 hPa | 0 mm | - | 0 W/m² | - |
| 1778037271 | 20.56° C | 51% | 1019.3 hPa | 0 mm | - | 0 W/m² | - |
| 1778036969 | 20.56° C | 51% | 1019.3 hPa | 0 mm | - | 0 W/m² | - |
* Rain latest hour (hover to see other rain measurements)
** Current wind speed in m/s (hover to see current wind gust speed)